,,,PA_Meas_PMT16A,,PR_Meas_QMR101_102,,RH_Meas_QMH101,,SR_Meas_QMS101,,TA_Meas_QMH101,,GenWind,,GenWind,
date,time,status,PA,status,PR,status,RH,status,SR,status,TA,status,DirAvg,status,SpdAvg,
2010-12-17, 00:00:04,VALID,998.166,VALID,0,VALID,92.5168,VALID,0,VALID,23.2702,VALID,64,VALID,0.705078,
2010-12-17, 00:01:04,VALID,998.212,VALID,0,VALID,92.4939,VALID,0,VALID,23.2702,VALID,64,VALID,0.539453,
2010-12-17, 00:02:04,VALID,998.178,VALID,0,VALID,92.4557,VALID,0,VALID,23.2312,VALID,64,VALID,0.307422,
2010-12-17, 00:03:04,VALID,998.178,VALID,0,VALID,92.41,VALID,0,VALID,23.2134,VALID,64,VALID,0.416406,
2010-12-17, 00:04:04,VALID,998.138,VALID,0,VALID,92.3871,VALID,0,VALID,23.1744,VALID,64,VALID,0.553906,
2010-12-17, 00:05:04,VALID,998.135,VALID,0,VALID,92.3871,VALID,0,VALID,23.1939,VALID,64,VALID,0.537891,
2010-12-17, 00:06:04,VALID,998.106,VALID,0,VALID,92.3947,VALID,0,VALID,23.1726,VALID,64,VALID,0.510156,
2010-12-17, 00:07:04,VALID,998.081,VALID,0,VALID,92.4176,VALID,0,VALID,23.2117,VALID,64,VALID,0.687109,
2010-12-17, 00:08:04,VALID,998.106,VALID,0,VALID,92.4481,VALID,0,VALID,23.2507,VALID,64,VALID,0.741016,
2010-12-17, 00:09:04,VALID,998.099,VALID,0,VALID,92.4634,VALID,0,VALID,23.2719,VALID,64,VALID,0.764453,
2010-12-17, 00:10:04,VALID,998.102,VALID,0,VALID,92.4557,VALID,0,VALID,23.2719,VALID,64,VALID,0.646484,
2010-12-17, 00:11:04,VALID,998.094,VALID,0,VALID,92.4328,VALID,0.112286,VALID,23.2117,VALID,64,VALID,0.571094,
2010-12-17, 00:12:04,VALID,998.079,VALID,0,VALID,92.4176,VALID,0.112286,VALID,23.1921,VALID,64,VALID,0.511719,
2010-12-17, 00:13:04,VALID,998.059,VALID,0,VALID,92.3947,VALID,0.112286,VALID,23.1531,VALID,64,VALID,0.309375,
2010-12-17, 00:14:04,VALID,998.047,VALID,0,VALID,92.3794,VALID,0,VALID,23.1141,VALID,64,VALID,0.271875,
2010-12-17, 00:15:04,VALID,997.987,VALID,0,VALID,92.3718,VALID,0.112286,VALID,23.1141,VALID,64,VALID,0.0105469,
2010-12-17, 00:16:04,VALID,998.037,VALID,0,VALID,92.3489,VALID,0,VALID,23.0946,VALID,64,VALID,0.0292969,
2010-12-17, 00:17:04,VALID,997.994,VALID,0,VALID,92.3566,VALID,0.112286,VALID,23.0946,VALID,64,VALID,0.228516,
2010-12-17, 00:18:04,VALID,997.951,VALID,0,VALID,92.3794,VALID,0,VALID,23.0751,VALID,64,VALID,0.353516,
2010-12-17, 00:19:04,VALID,997.958,VALID,0,VALID,92.3947,VALID,0.112286,VALID,23.0751,VALID,64,VALID,0.333594,
2010-12-17, 00:20:04,VALID,997.955,VALID,0,VALID,92.3871,VALID,0,VALID,23.0751,VALID,64,VALID,0.457031,
2010-12-17, 00:21:04,VALID,997.909,VALID,0,VALID,92.4481,VALID,0.112286,VALID,23.1141,VALID,64,VALID,0.567969,
2010-12-17, 00:22:04,VALID,997.901,VALID,0,VALID,92.4786,VALID,0.112286,VALID,23.1319,VALID,64,VALID,0.506641,
2010-12-17, 00:23:04,VALID,997.854,VALID,0,VALID,92.5473,VALID,0.112286,VALID,23.1921,VALID,64,VALID,0.394531,
2010-12-17, 00:24:04,VALID,997.877,VALID,0,VALID,92.5626,VALID,0,VALID,23.2312,VALID,64,VALID,0.242969,
2010-12-17, 00:25:04,VALID,997.873,VALID,0,VALID,92.5778,VALID,0.112286,VALID,23.2117,VALID,64,VALID,0.198047,
2010-12-17, 00:26:04,VALID,997.899,VALID,0,VALID,92.5626,VALID,0.112286,VALID,23.1531,VALID,64,VALID,0,
2010-12-17, 00:27:04,VALID,997.904,VALID,0,VALID,92.5702,VALID,0,VALID,23.0946,VALID,64,VALID,0,
2010-12-17, 00:28:04,VALID,997.925,VALID,0,VALID,92.5702,VALID,0.112286,VALID,23.0946,VALID,64,VALID,0,
2010-12-17, 00:29:04,VALID,997.916,VALID,0,VALID,92.5702,VALID,0.112286,VALID,23.0946,VALID,64,VALID,0,
2010-12-17, 00:30:04,VALID,997.934,VALID,0,VALID,92.5778,VALID,0.112286,VALID,23.1336,VALID,64,VALID,0,
2010-12-17, 00:31:04,VALID,997.926,VALID,0,VALID,92.5931,VALID,0,VALID,23.1744,VALID,64,VALID,0,
2010-12-17, 00:32:04,VALID,997.951,VALID,0,VALID,92.5931,VALID,0.112286,VALID,23.1921,VALID,64,VALID,0.277734,
2010-12-17, 00:33:04,VALID,997.921,VALID,0,VALID,92.6312,VALID,0,VALID,23.1921,VALID,64,VALID,0.21875,
2010-12-17, 00:34:04,VALID,997.957,VALID,0,VALID,92.6617,VALID,0.112286,VALID,23.2134,VALID,64,VALID,0.330078,
2010-12-17, 00:35:04,VALID,997.929,VALID,0,VALID,92.6541,VALID,0,VALID,23.2117,VALID,64,VALID,0.306641,
2010-12-17, 00:36:04,VALID,997.974,VALID,0,VALID,92.677,VALID,0,VALID,23.2117,VALID,64,VALID,0.130078,
2010-12-17, 00:37:04,VALID,997.934,VALID,0,VALID,92.7151,VALID,0.112286,VALID,23.2312,VALID,64,VALID,0.0683594,
2010-12-17, 00:38:04,VALID,997.906,VALID,0,VALID,92.7228,VALID,0.112286,VALID,23.2312,VALID,64,VALID,0.0171875,
2010-12-17, 00:39:04,VALID,997.878,VALID,0,VALID,92.7151,VALID,0.112286,VALID,23.2507,VALID,64,VALID,0.204688,
2010-12-17, 00:40:04,VALID,997.87,VALID,0,VALID,92.7533,VALID,0,VALID,23.2719,VALID,64,VALID,0.296094,
2010-12-17, 00:41:04,VALID,997.864,VALID,0,VALID,92.7457,VALID,0,VALID,23.2719,VALID,64,VALID,0.219922,
2010-12-17, 00:42:04,VALID,997.86,VALID,0,VALID,92.7533,VALID,0,VALID,23.2719,VALID,64,VALID,0.267578,
2010-12-17, 00:43:04,VALID,997.865,VALID,0,VALID,92.738,VALID,0,VALID,23.2719,VALID,64,VALID,0.527344,
2010-12-17, 00:44:04,VALID,997.853,VALID,0,VALID,92.7609,VALID,0,VALID,23.311,VALID,64,VALID,0.551172,
2010-12-17, 00:45:04,VALID,997.832,VALID,0,VALID,92.7685,VALID,0,VALID,23.3305,VALID,101,VALID,0.3125,
2010-12-17, 00:46:04,VALID,997.852,VALID,0,VALID,92.7685,VALID,0,VALID,23.3305,VALID,101,VALID,0.823828,
2010-12-17, 00:47:04,VALID,997.81,VALID,0,VALID,92.7533,VALID,0,VALID,23.3695,VALID,101,VALID,0.637891,
2010-12-17, 00:48:04,VALID,997.826,VALID,0,VALID,92.6999,VALID,0,VALID,23.3287,VALID,101,VALID,0.441016,
2010-12-17, 00:49:04,VALID,997.777,VALID,0,VALID,92.6846,VALID,0,VALID,23.3305,VALID,101,VALID,0.344141,
2010-12-17, 00:50:04,VALID,997.786,VALID,0,VALID,92.6465,VALID,0,VALID,23.311,VALID,101,VALID,0.366797,
2010-12-17, 00:51:04,VALID,997.789,VALID,0,VALID,92.616,VALID,0,VALID,23.2915,VALID,101,VALID,0.216406,
2010-12-17, 00:52:04,VALID,997.744,VALID,0,VALID,92.5778,VALID,0,VALID,23.2719,VALID,101,VALID,0.0175781,
2010-12-17, 00:53:04,VALID,997.729,VALID,0,VALID,92.5091,VALID,0,VALID,23.2524,VALID,101,VALID,0,
2010-12-17, 00:54:04,VALID,997.705,VALID,0,VALID,92.4786,VALID,0,VALID,23.2152,VALID,101,VALID,0,
2010-12-17, 00:55:04,VALID,997.695,VALID,0,VALID,92.4176,VALID,0,VALID,23.1744,VALID,101,VALID,0,
2010-12-17, 00:56:04,VALID,997.696,VALID,0,VALID,92.3794,VALID,0,VALID,23.1354,VALID,101,VALID,0,
2010-12-17, 00:57:04,VALID,997.66,VALID,0,VALID,92.3413,VALID,0,VALID,23.1354,VALID,101,VALID,0,
2010-12-17, 00:58:04,VALID,997.643,VALID,0,VALID,92.3184,VALID,0,VALID,23.1354,VALID,101,VALID,0,
2010-12-17, 00:59:04,VALID,997.63,VALID,0,VALID,92.3108,VALID,0,VALID,23.1354,VALID,101,VALID,0,
2010-12-17, 01:00:04,VALID,997.586,VALID,0,VALID,92.2955,VALID,0,VALID,23.1159,VALID,101,VALID,0,
2010-12-17, 01:01:04,VALID,997.555,VALID,0,VALID,92.2955,VALID,0,VALID,23.1159,VALID,101,VALID,0,
2010-12-17, 01:02:04,VALID,997.573,VALID,0,VALID,92.3337,VALID,0,VALID,23.1354,VALID,101,VALID,0.0492188,
2010-12-17, 01:03:04,VALID,997.555,VALID,0,VALID,92.3337,VALID,0,VALID,23.1159,VALID,101,VALID,0.244141,
2010-12-17, 01:04:04,VALID,997.541,VALID,0,VALID,92.3489,VALID,0,VALID,23.1159,VALID,101,VALID,0.112891,
2010-12-17, 01:05:04,VALID,997.536,VALID,0,VALID,92.3718,VALID,0,VALID,23.0964,VALID,101,VALID,0,
2010-12-17, 01:06:04,VALID,997.514,VALID,0,VALID,92.3947,VALID,0,VALID,23.0964,VALID,101,VALID,0,
2010-12-17, 01:07:04,VALID,997.525,VALID,0,VALID,92.4176,VALID,0,VALID,23.1159,VALID,101,VALID,0,
2010-12-17, 01:08:04,VALID,997.493,VALID,0,VALID,92.4634,VALID,0,VALID,23.1159,VALID,101,VALID,0.102734,
2010-12-17, 01:09:04,VALID,997.517,VALID,0,VALID,92.4634,VALID,0,VALID,23.0964,VALID,101,VALID,0.184375,
2010-12-17, 01:10:04,VALID,997.479,VALID,0,VALID,92.4863,VALID,0,VALID,23.1159,VALID,101,VALID,0.172266,
2010-12-17, 01:11:04,VALID,997.484,VALID,0,VALID,92.5168,VALID,0.112286,VALID,23.0964,VALID,101,VALID,0.140625,
2010-12-17, 01:12:04,VALID,997.46,VALID,0,VALID,92.5168,VALID,0,VALID,23.0166,VALID,101,VALID,0,
2010-12-17, 01:13:04,VALID,997.47,VALID,0,VALID,92.5091,VALID,0,VALID,22.9971,VALID,101,VALID,0.00429688,
2010-12-17, 01:14:04,VALID,997.469,VALID,0,VALID,92.532,VALID,0,VALID,23.0183,VALID,101,VALID,0.167969,
2010-12-17, 01:15:04,VALID,997.459,VALID,0,VALID,92.5549,VALID,0,VALID,23.0166,VALID,101,VALID,0.267188,
2010-12-17, 01:16:04,VALID,997.46,VALID,0,VALID,92.5778,VALID,0,VALID,23.0183,VALID,101,VALID,0.457031,
2010-12-17, 01:17:04,VALID,997.459,VALID,0,VALID,92.6007,VALID,0,VALID,22.9776,VALID,101,VALID,0.567969,
2010-12-17, 01:18:04,VALID,997.454,VALID,0,VALID,92.6083,VALID,0.112286,VALID,22.9776,VALID,101,VALID,0.589453,
2010-12-17, 01:19:04,VALID,997.436,VALID,0,VALID,92.6694,VALID,0.112286,VALID,22.9971,VALID,101,VALID,0.486719,
2010-12-17, 01:20:04,VALID,997.467,VALID,0,VALID,92.6923,VALID,0.112286,VALID,22.9971,VALID,101,VALID,0.578906,
2010-12-17, 01:21:04,VALID,997.456,VALID,0,VALID,92.7151,VALID,0,VALID,22.9776,VALID,83,VALID,0.608203,
2010-12-17, 01:22:04,VALID,997.432,VALID,0,VALID,92.7304,VALID,0.112286,VALID,23.0166,VALID,61,VALID,0.595312,
2010-12-17, 01:23:04,VALID,997.446,VALID,0,VALID,92.7457,VALID,0.112286,VALID,22.9971,VALID,56,VALID,0.704297,
2010-12-17, 01:24:04,VALID,997.392,VALID,0,VALID,92.7533,VALID,0.112286,VALID,22.9581,VALID,55,VALID,0.825391,
2010-12-17, 01:25:04,VALID,997.351,VALID,0,VALID,92.7533,VALID,0,VALID,22.9013,VALID,55,VALID,0.933203,
2010-12-17, 01:26:04,VALID,997.374,VALID,0,VALID,92.7762,VALID,0,VALID,22.8818,VALID,55,VALID,0.908203,
2010-12-17, 01:27:04,VALID,997.331,VALID,0,VALID,92.7914,VALID,0,VALID,22.8623,VALID,55,VALID,0.934375,
2010-12-17, 01:28:04,VALID,997.341,VALID,0,VALID,92.8067,VALID,0,VALID,22.8232,VALID,55,VALID,1.08438,
2010-12-17, 01:29:04,VALID,997.324,VALID,0,VALID,92.8143,VALID,0,VALID,22.8232,VALID,55,VALID,1.04648,
2010-12-17, 01:30:04,VALID,997.322,VALID,0,VALID,92.8067,VALID,0,VALID,22.8037,VALID,55,VALID,1.03164,
2010-12-17, 01:31:04,VALID,997.321,VALID,0,VALID,92.8067,VALID,0,VALID,22.7647,VALID,55,VALID,1.06953,
2010-12-17, 01:32:04,VALID,997.261,VALID,0,VALID,92.8143,VALID,0,VALID,22.7452,VALID,55,VALID,0.927344,
2010-12-17, 01:33:04,VALID,997.256,VALID,0,VALID,92.8067,VALID,0,VALID,22.7257,VALID,55,VALID,0.852734,
2010-12-17, 01:34:04,VALID,997.255,VALID,0,VALID,92.7991,VALID,0,VALID,22.7079,VALID,55,VALID,0.702344,
2010-12-17, 01:35:04,VALID,997.234,VALID,0,VALID,92.7914,VALID,0,VALID,22.6867,VALID,55,VALID,0.496094,
2010-12-17, 01:36:04,VALID,997.243,VALID,0,VALID,92.7838,VALID,0,VALID,22.6672,VALID,55,VALID,0.275391,
2010-12-17, 01:37:04,VALID,997.248,VALID,0,VALID,92.7914,VALID,0,VALID,22.6477,VALID,55,VALID,0.179688,
2010-12-17, 01:38:04,VALID,997.231,VALID,0,VALID,92.7838,VALID,0,VALID,22.6477,VALID,55,VALID,0.220703,
2010-12-17, 01:39:04,VALID,997.225,VALID,0,VALID,92.7685,VALID,0,VALID,22.6282,VALID,55,VALID,0.21875,
2010-12-17, 01:40:04,VALID,997.26,VALID,0,VALID,92.7914,VALID,0,VALID,22.6087,VALID,55,VALID,0.301953,
2010-12-17, 01:41:04,VALID,997.241,VALID,0,VALID,92.7914,VALID,0,VALID,22.6087,VALID,55,VALID,0.636328,
2010-12-17, 01:42:04,VALID,997.214,VALID,0,VALID,92.8296,VALID,0,VALID,22.6672,VALID,55,VALID,0.724609,
2010-12-17, 01:43:04,VALID,997.231,VALID,0,VALID,92.8448,VALID,0,VALID,22.7452,VALID,55,VALID,0.8125,
2010-12-17, 01:44:04,VALID,997.237,VALID,0,VALID,92.8754,VALID,0,VALID,22.8037,VALID,55,VALID,0.807422,
2010-12-17, 01:45:04,VALID,997.19,VALID,0,VALID,92.8906,VALID,0,VALID,22.8037,VALID,55,VALID,0.820703,
2010-12-17, 01:46:04,VALID,997.192,VALID,0,VALID,92.8754,VALID,0,VALID,22.8037,VALID,55,VALID,0.802344,
2010-12-17, 01:47:04,VALID,997.224,VALID,0,VALID,92.9135,VALID,0,VALID,22.7647,VALID,55,VALID,0.776172,
2010-12-17, 01:48:04,VALID,997.221,VALID,0,VALID,92.9059,VALID,0,VALID,22.7452,VALID,55,VALID,0.603516,
2010-12-17, 01:49:04,VALID,997.201,VALID,0,VALID,92.9211,VALID,0,VALID,22.7257,VALID,55,VALID,0.419531,
2010-12-17, 01:50:04,VALID,997.195,VALID,0,VALID,92.9135,VALID,0,VALID,22.7062,VALID,55,VALID,0.274609,
2010-12-17, 01:51:04,VALID,997.197,VALID,0,VALID,92.8983,VALID,0,VALID,22.6867,VALID,55,VALID,0.252344,
2010-12-17, 01:52:04,VALID,997.169,VALID,0,VALID,92.944,VALID,0,VALID,22.7062,VALID,55,VALID,0.347656,
2010-12-17, 01:53:04,VALID,997.163,VALID,0,VALID,92.9517,VALID,0,VALID,22.7257,VALID,55,VALID,0.480859,
2010-12-17, 01:54:04,VALID,997.199,VALID,0,VALID,92.9745,VALID,0,VALID,22.786,VALID,55,VALID,0.510547,
2010-12-17, 01:55:04,VALID,997.21,VALID,0,VALID,92.9898,VALID,0,VALID,22.8037,VALID,55,VALID,0.546094,
2010-12-17, 01:56:04,VALID,997.21,VALID,0,VALID,92.9898,VALID,0,VALID,22.8037,VALID,55,VALID,0.452734,
2010-12-17, 01:57:04,VALID,997.198,VALID,0,VALID,92.9898,VALID,0,VALID,22.8055,VALID,55,VALID,0.383203,
2010-12-17, 01:58:04,VALID,997.211,VALID,0,VALID,92.9822,VALID,0,VALID,22.7452,VALID,55,VALID,0.311719,
2010-12-17, 01:59:04,VALID,997.209,VALID,0,VALID,92.9898,VALID,0,VALID,22.7452,VALID,55,VALID,0.368359,
2010-12-17, 02:00:04,VALID,997.196,VALID,0,VALID,92.9745,VALID,0,VALID,22.7257,VALID,55,VALID,0.341406,
2010-12-17, 02:01:04,VALID,997.183,VALID,0,VALID,92.9822,VALID,0,VALID,22.7257,VALID,55,VALID,0.359766,
2010-12-17, 02:02:04,VALID,997.155,VALID,0,VALID,92.9974,VALID,0,VALID,22.7647,VALID,55,VALID,0.474219,
2010-12-17, 02:03:04,VALID,997.135,VALID,0,VALID,93.0203,VALID,0,VALID,22.8037,VALID,55,VALID,0.465234,
2010-12-17, 02:04:04,VALID,997.12,VALID,0,VALID,93.0127,VALID,0,VALID,22.8427,VALID,55,VALID,0.383984,
2010-12-17, 02:05:04,VALID,997.081,VALID,0,VALID,93.0203,VALID,0,VALID,22.8037,VALID,55,VALID,0.596484,
2010-12-17, 02:06:04,VALID,997.078,VALID,0,VALID,93.0127,VALID,0,VALID,22.8037,VALID,55,VALID,0.471875,
2010-12-17, 02:07:04,VALID,997.091,VALID,0,VALID,93.0203,VALID,0,VALID,22.7452,VALID,55,VALID,0.0515625,
2010-12-17, 02:08:04,VALID,997.071,VALID,0,VALID,93.0203,VALID,0,VALID,22.7257,VALID,55,VALID,0.373828,
2010-12-17, 02:09:04,VALID,997.091,VALID,0,VALID,93.0203,VALID,0,VALID,22.7257,VALID,55,VALID,0.316016,
2010-12-17, 02:10:04,VALID,997.095,VALID,0,VALID,93.0051,VALID,0,VALID,22.7257,VALID,55,VALID,0.466406,
2010-12-17, 02:11:04,VALID,997.07,VALID,0,VALID,93.0356,VALID,0,VALID,22.7274,VALID,55,VALID,0.425391,
2010-12-17, 02:12:04,VALID,997.062,VALID,0,VALID,92.9974,VALID,0,VALID,22.7257,VALID,55,VALID,0.521484,
2010-12-17, 02:13:04,VALID,997.079,VALID,0,VALID,93.0127,VALID,0,VALID,22.7664,VALID,55,VALID,0.528516,
2010-12-17, 02:14:04,VALID,997.026,VALID,0,VALID,93.0356,VALID,0,VALID,22.8427,VALID,55,VALID,0.634375,
2010-12-17, 02:15:04,VALID,997.029,VALID,0,VALID,93.0508,VALID,0,VALID,22.8818,VALID,55,VALID,0.48125,
2010-12-17, 02:16:04,VALID,997.031,VALID,0,VALID,93.0585,VALID,0,VALID,22.9013,VALID,55,VALID,0.358594,
2010-12-17, 02:17:04,VALID,997.015,VALID,0,VALID,93.0508,VALID,0,VALID,22.9013,VALID,55,VALID,0.400781,
2010-12-17, 02:18:04,VALID,997.044,VALID,0,VALID,93.0432,VALID,0,VALID,22.8623,VALID,55,VALID,0.164453,
2010-12-17, 02:19:04,VALID,996.998,VALID,0,VALID,93.0432,VALID,0,VALID,22.7647,VALID,55,VALID,0.168359,
2010-12-17, 02:20:04,VALID,996.99,VALID,0,VALID,93.0203,VALID,0,VALID,22.8055,VALID,55,VALID,0.324219,
2010-12-17, 02:21:04,VALID,997.002,VALID,0,VALID,93.0356,VALID,0,VALID,22.786,VALID,55,VALID,0.391016,
2010-12-17, 02:22:04,VALID,996.97,VALID,0,VALID,93.028,VALID,0,VALID,22.7647,VALID,55,VALID,0.599609,
2010-12-17, 02:23:04,VALID,997.012,VALID,0,VALID,93.0508,VALID,0,VALID,22.7647,VALID,55,VALID,0.623828,
2010-12-17, 02:24:04,VALID,996.964,VALID,0,VALID,93.0203,VALID,0,VALID,22.7842,VALID,55,VALID,0.605078,
2010-12-17, 02:25:04,VALID,996.988,VALID,0,VALID,93.0356,VALID,0,VALID,22.7452,VALID,55,VALID,0.328125,
2010-12-17, 02:26:04,VALID,996.995,VALID,0,VALID,93.0127,VALID,0,VALID,22.7062,VALID,55,VALID,0.229297,
2010-12-17, 02:27:04,VALID,996.996,VALID,0,VALID,93.0051,VALID,0,VALID,22.6477,VALID,55,VALID,0,
2010-12-17, 02:28:04,VALID,997.009,VALID,0,VALID,92.9898,VALID,0,VALID,22.5892,VALID,55,VALID,0,
2010-12-17, 02:29:04,VALID,997.005,VALID,0,VALID,92.9898,VALID,0,VALID,22.5892,VALID,55,VALID,0.0410156,
2010-12-17, 02:30:04,VALID,997.015,VALID,0,VALID,92.9745,VALID,0,VALID,22.5892,VALID,55,VALID,0.220313,
2010-12-17, 02:31:04,VALID,996.987,VALID,0,VALID,92.9669,VALID,0,VALID,22.5892,VALID,55,VALID,0.353906,
2010-12-17, 02:32:04,VALID,996.975,VALID,0,VALID,92.9745,VALID,0,VALID,22.6087,VALID,55,VALID,0.484375,
2010-12-17, 02:33:04,VALID,996.977,VALID,0,VALID,92.9822,VALID,0,VALID,22.5892,VALID,55,VALID,0.495313,
2010-12-17, 02:34:04,VALID,996.944,VALID,0,VALID,92.9822,VALID,0,VALID,22.6087,VALID,55,VALID,0.524609,
2010-12-17, 02:35:04,VALID,996.9,VALID,0,VALID,92.9822,VALID,0,VALID,22.6299,VALID,55,VALID,0.564844,
2010-12-17, 02:36:04,VALID,996.912,VALID,0,VALID,92.9898,VALID,0,VALID,22.6104,VALID,55,VALID,0.555859,
2010-12-17, 02:37:04,VALID,996.905,VALID,0,VALID,92.9974,VALID,0,VALID,22.6282,VALID,55,VALID,0.611328,
2010-12-17, 02:38:04,VALID,996.899,VALID,0,VALID,93.0051,VALID,0,VALID,22.6477,VALID,55,VALID,0.474609,
2010-12-17, 02:39:04,VALID,996.91,VALID,0,VALID,92.9822,VALID,0,VALID,22.6477,VALID,55,VALID,0.436719,
2010-12-17, 02:40:04,VALID,996.91,VALID,0,VALID,92.9898,VALID,0,VALID,22.6282,VALID,55,VALID,0.422656,
2010-12-17, 02:41:04,VALID,996.878,VALID,0,VALID,92.9974,VALID,0,VALID,22.5892,VALID,55,VALID,0.523438,
2010-12-17, 02:42:04,VALID,996.872,VALID,0,VALID,93.0051,VALID,0,VALID,22.6104,VALID,55,VALID,0.658203,
2010-12-17, 02:43:04,VALID,996.894,VALID,0,VALID,93.0051,VALID,0,VALID,22.5892,VALID,40,VALID,0.760547,
2010-12-17, 02:44:04,VALID,996.935,VALID,0,VALID,93.0051,VALID,0,VALID,22.6104,VALID,40,VALID,0.668359,
2010-12-17, 02:45:04,VALID,996.931,VALID,0,VALID,93.0203,VALID,0,VALID,22.6494,VALID,40,VALID,0.640234,
2010-12-17, 02:46:04,VALID,996.918,VALID,0,VALID,93.028,VALID,0,VALID,22.6672,VALID,40,VALID,0.607422,
2010-12-17, 02:47:04,VALID,996.919,VALID,0,VALID,93.0432,VALID,0,VALID,22.6867,VALID,40,VALID,0.585156,
2010-12-17, 02:48:04,VALID,996.892,VALID,0,VALID,93.0508,VALID,0,VALID,22.7062,VALID,40,VALID,0.679688,
2010-12-17, 02:49:04,VALID,996.931,VALID,0,VALID,93.0585,VALID,0,VALID,22.7062,VALID,40,VALID,0.803516,
2010-12-17, 02:50:04,VALID,996.933,VALID,0,VALID,93.0508,VALID,0,VALID,22.6867,VALID,40,VALID,0.777734,
2010-12-17, 02:51:04,VALID,996.942,VALID,0,VALID,93.0432,VALID,0,VALID,22.6477,VALID,40,VALID,0.694141,
2010-12-17, 02:52:04,VALID,996.928,VALID,0,VALID,93.0203,VALID,0,VALID,22.6299,VALID,40,VALID,0.694531,
2010-12-17, 02:53:04,VALID,996.916,VALID,0,VALID,93.0051,VALID,0,VALID,22.5892,VALID,40,VALID,0.832031,
2010-12-17, 02:54:04,VALID,996.941,VALID,0,VALID,93.028,VALID,0,VALID,22.5892,VALID,40,VALID,0.906641,
2010-12-17, 02:55:04,VALID,996.934,VALID,0,VALID,93.0203,VALID,0,VALID,22.6087,VALID,40,VALID,0.946484,
2010-12-17, 02:56:04,VALID,996.93,VALID,0,VALID,93.0356,VALID,0,VALID,22.6282,VALID,40,VALID,0.993359,
2010-12-17, 02:57:04,VALID,996.909,VALID,0,VALID,93.0203,VALID,0,VALID,22.6087,VALID,40,VALID,1.04922,
2010-12-17, 02:58:04,VALID,996.954,VALID,0,VALID,93.0051,VALID,0,VALID,22.5696,VALID,40,VALID,0.9375,
2010-12-17, 02:59:04,VALID,996.922,VALID,0,VALID,92.9822,VALID,0,VALID,22.5501,VALID,40,VALID,0.900781,
2010-12-17, 03:00:04,VALID,996.928,VALID,0,VALID,92.9822,VALID,0,VALID,22.5111,VALID,40,VALID,0.700391,
2010-12-17, 03:01:04,VALID,996.933,VALID,0,VALID,92.9822,VALID,0,VALID,22.5111,VALID,40,VALID,0.545703,
2010-12-17, 03:02:04,VALID,996.941,VALID,0,VALID,92.9669,VALID,0,VALID,22.4916,VALID,40,VALID,0.278516,
2010-12-17, 03:03:04,VALID,996.954,VALID,0,VALID,92.9288,VALID,0,VALID,22.4526,VALID,40,VALID,0.224219,
2010-12-17, 03:04:04,VALID,996.96,VALID,0,VALID,92.9135,VALID,0,VALID,22.4136,VALID,40,VALID,0.271484,
2010-12-17, 03:05:04,VALID,996.968,VALID,0,VALID,92.8906,VALID,0,VALID,22.3941,VALID,40,VALID,0.226172,
2010-12-17, 03:06:04,VALID,996.969,VALID,0,VALID,92.8754,VALID,0,VALID,22.3746,VALID,40,VALID,0.214844,
2010-12-17, 03:07:04,VALID,996.986,VALID,0,VALID,92.8754,VALID,0,VALID,22.3746,VALID,40,VALID,0.224609,
2010-12-17, 03:08:04,VALID,996.975,VALID,0,VALID,92.8601,VALID,0,VALID,22.3551,VALID,40,VALID,0.373828,
2010-12-17, 03:09:04,VALID,996.956,VALID,0,VALID,92.883,VALID,0,VALID,22.3746,VALID,40,VALID,0.396484,
2010-12-17, 03:10:04,VALID,996.947,VALID,0,VALID,92.8983,VALID,0,VALID,22.4331,VALID,40,VALID,0.428516,
2010-12-17, 03:11:04,VALID,996.96,VALID,0,VALID,92.9135,VALID,0,VALID,22.4916,VALID,40,VALID,0.38125,
2010-12-17, 03:12:04,VALID,996.971,VALID,0,VALID,92.9517,VALID,0,VALID,22.5306,VALID,40,VALID,0.284766,
2010-12-17, 03:13:04,VALID,996.966,VALID,0,VALID,92.9517,VALID,0,VALID,22.5501,VALID,40,VALID,0.225,
2010-12-17, 03:14:04,VALID,996.954,VALID,0,VALID,92.9593,VALID,0,VALID,22.5519,VALID,40,VALID,0.103516,
2010-12-17, 03:15:04,VALID,996.994,VALID,0,VALID,92.9517,VALID,0,VALID,22.5306,VALID,40,VALID,0,
2010-12-17, 03:16:04,VALID,996.957,VALID,0,VALID,92.9517,VALID,0,VALID,22.5501,VALID,40,VALID,0.196484,
2010-12-17, 03:17:04,VALID,996.989,VALID,0,VALID,92.9669,VALID,0,VALID,22.5501,VALID,40,VALID,0.421875,
2010-12-17, 03:18:04,VALID,997.002,VALID,0,VALID,92.9745,VALID,0,VALID,22.5501,VALID,40,VALID,0.449609,
2010-12-17, 03:19:04,VALID,997.002,VALID,0,VALID,92.9669,VALID,0,VALID,22.5696,VALID,40,VALID,0.555078,
2010-12-17, 03:20:04,VALID,997.016,VALID,0,VALID,92.9822,VALID,0,VALID,22.5306,VALID,40,VALID,0.55625,
2010-12-17, 03:21:04,VALID,996.984,VALID,0,VALID,92.9745,VALID,0,VALID,22.5519,VALID,40,VALID,0.358594,
2010-12-17, 03:22:04,VALID,996.998,VALID,0,VALID,92.9745,VALID,0,VALID,22.5111,VALID,40,VALID,0.313281,
2010-12-17, 03:23:04,VALID,997.007,VALID,0,VALID,92.9974,VALID,0,VALID,22.5111,VALID,40,VALID,0.431641,
2010-12-17, 03:24:04,VALID,996.983,VALID,0,VALID,92.9974,VALID,0,VALID,22.4916,VALID,40,VALID,0.441797,
2010-12-17, 03:25:04,VALID,997,VALID,0,VALID,92.9974,VALID,0,VALID,22.4721,VALID,40,VALID,0.41875,
2010-12-17, 03:26:04,VALID,996.982,VALID,0,VALID,93.0203,VALID,0,VALID,22.5111,VALID,40,VALID,0.442187,
2010-12-17, 03:27:04,VALID,996.995,VALID,0,VALID,93.0356,VALID,0,VALID,22.5909,VALID,40,VALID,0.369922,
2010-12-17, 03:28:04,VALID,997.013,VALID,0,VALID,93.028,VALID,0,VALID,22.6087,VALID,40,VALID,0.281641,
2010-12-17, 03:29:04,VALID,997.044,VALID,0,VALID,93.0432,VALID,0,VALID,22.6282,VALID,40,VALID,0.229687,
2010-12-17, 03:30:04,VALID,997.026,VALID,0,VALID,93.0585,VALID,0,VALID,22.6494,VALID,40,VALID,0.366406,
2010-12-17, 03:31:04,VALID,997.075,VALID,0,VALID,93.0508,VALID,0,VALID,22.6282,VALID,40,VALID,0.341016,
2010-12-17, 03:32:04,VALID,997.085,VALID,0,VALID,93.0356,VALID,0,VALID,22.6087,VALID,40,VALID,0.308594,
2010-12-17, 03:33:04,VALID,997.102,VALID,0,VALID,93.0356,VALID,0,VALID,22.5892,VALID,40,VALID,0.332422,
2010-12-17, 03:34:04,VALID,997.139,VALID,0,VALID,93.0585,VALID,0,VALID,22.5696,VALID,40,VALID,0.388281,
2010-12-17, 03:35:04,VALID,997.149,VALID,0,VALID,93.0432,VALID,0,VALID,22.5892,VALID,40,VALID,0.393359,
2010-12-17, 03:36:04,VALID,997.164,VALID,0,VALID,93.0661,VALID,0,VALID,22.6087,VALID,40,VALID,0.498437,
2010-12-17, 03:37:04,VALID,997.187,VALID,0,VALID,93.0737,VALID,0,VALID,22.6672,VALID,40,VALID,0.539063,
2010-12-17, 03:38:04,VALID,997.192,VALID,0,VALID,93.0737,VALID,0,VALID,22.7062,VALID,40,VALID,0.635156,
2010-12-17, 03:39:04,VALID,997.218,VALID,0,VALID,93.0661,VALID,0,VALID,22.7062,VALID,40,VALID,0.673047,
2010-12-17, 03:40:04,VALID,997.221,VALID,0,VALID,93.0814,VALID,0,VALID,22.7257,VALID,40,VALID,0.735937,
2010-12-17, 03:41:04,VALID,997.222,VALID,0,VALID,93.0966,VALID,0,VALID,22.7452,VALID,40,VALID,0.635547,
2010-12-17, 03:42:04,VALID,997.201,VALID,0,VALID,93.0737,VALID,0,VALID,22.7664,VALID,40,VALID,0.561719,
2010-12-17, 03:43:04,VALID,997.204,VALID,0,VALID,93.0585,VALID,0,VALID,22.7664,VALID,40,VALID,0.477344,
2010-12-17, 03:44:04,VALID,997.217,VALID,0,VALID,93.0661,VALID,0,VALID,22.7452,VALID,40,VALID,0.525781,
2010-12-17, 03:45:04,VALID,997.225,VALID,0,VALID,93.0508,VALID,0,VALID,22.7469,VALID,40,VALID,0.755078,